Tracking 30970 objects as of 3-Jul-2025
HD Live streaming from Space Station
objects crossing your sky now

ATS 6

Track ATS 6 now!
ATS 6 is classified as:


NORAD ID: 7318
Int'l Code: 1974-039A
Perigee: 35,201.1 km
Apogee: 35,441.8 km
Inclination: 2.8 °
Period: 1,412.0 minutes
Semi major axis: 41692 km
RCS: 6.3095 m2 (large)
Launch date: May 30, 1974
Source: United States (US)
Launch site: AIR FORCE EASTERN TEST RANGE (AFETR)
Your satellite tracking list
Your tracking list is empty




NASA's NSSDC Master Catalog

Two Line Element Set (TLE):
1 07318U 74039A   25183.93578014 -.00000190  00000-0  00000-0 0  9999
2 07318   2.8054 259.2764 0028866 324.4981  95.6367  1.01980519118444
Source of the keplerian elements: AFSPC